DL5MAC-13 Weather Reports


time (UTC)temp
C
wind
direction
speed
KPH
gust
KPH
rain 1hr
cm
rain 24hr
cm
rain mn
cm
humidity
%
barometer
mb
20260504070105 18 0.0 0.0 0.00 0.00 0.00 53 1018.1
20260504045114 13 0.0 0.0 0.00 0.00 0.00 63 1018.1
20260504044035 13 0.0 0.0 0.00 0.00 0.00 63 1018.0
20260504043057 12 0.0 0.0 0.00 0.00 0.00 64 1017.9
20260504042017 12 0.0 0.0 0.00 0.00 0.00 63 1018.0
20260504041039 13 0.0 0.0 0.00 0.00 0.00 63 1017.9
20260504040106 13 0.0 0.0 0.00 0.00 0.00 63 1017.8
20260504035023 13 0.0 0.0 0.00 0.00 0.00 62 1017.9
20260504034048 13 0.0 0.0 0.00 0.00 0.00 61 1018.0
20260504033114 13 0.0 0.0 0.00 0.00 0.00 61 1017.9
20260504032033 13 0.0 0.0 0.00 0.00 0.00 60 1018.1
20260504031058 13 0.0 0.0 0.00 0.00 0.00 60 1018.0
20260504030019 13 0.0 0.0 0.00 0.00 0.00 59 1018.1
20260504025038 14 0.0 0.0 0.00 0.00 0.00 59 1018.1
20260504024105 14 0.0 0.0 0.00 0.00 0.00 59 1018.0
20260504023022 14 0.0 0.0 0.00 0.00 0.00 59 1018.0
20260504022048 14 0.0 0.0 0.00 0.00 0.00 58 1018.1
20260504021114 15 0.0 0.0 0.00 0.00 0.00 56 1017.9
20260504020033 15 0.0 0.0 0.00 0.00 0.00 55 1017.9
20260504015058 15 0.0 0.0 0.00 0.00 0.00 55 1017.9
20260504014018 15 0.0 0.0 0.00 0.00 0.00 55 1018.0
20260504013039 15 0.0 0.0 0.00 0.00 0.00 55 1018.0
20260504012106 15 0.0 0.0 0.00 0.00 0.00 54 1017.9
20260504011024 15 0.0 0.0 0.00 0.00 0.00 56 1018.0
20260504010048 15 0.0 0.0 0.00 0.00 0.00 57 1017.8
20260504005114 15 0.0 0.0 0.00 0.00 0.00 57 1017.6
20260504004039 15 0.0 0.0 0.00 0.00 0.00 58 1017.5
20260504003057 15 0.0 0.0 0.00 0.00 0.00 60 1017.4
20260504002018 15 0.0 0.0 0.00 0.00 0.00 61 1017.3
20260504001040 15 0.0 0.0 0.00 0.00 0.00 62 1017.2
20260504000106 15 0.0 0.0 0.00 0.00 0.00 62 1016.9
20260503235023 15 0.0 0.0 0.00 0.00 0.00 62 1016.9
20260503234047 15 0.0 0.0 0.00 0.00 0.00 62 1016.8
20260503233114 15 0.0 0.0 0.00 0.00 0.00 61 1016.7
20260503232034 15 0.0 0.0 0.00 0.00 0.00 61 1016.7
20260503231058 15 0.0 0.0 0.00 0.00 0.00 60 1016.5
20260503230032 15 0.0 0.0 0.00 0.00 0.00 59 1016.4
20260503225058 15 0.0 0.0 0.00 0.00 0.00 59 1016.4
20260503224018 15 0.0 0.0 0.00 0.00 0.00 58 1016.3
20260503223041 15 0.0 0.0 0.00 0.00 0.00 58 1016.2
20260503222106 16 0.0 0.0 0.00 0.00 0.00 58 1016.3
20260503221025 16 0.0 0.0 0.00 0.00 0.00 58 1016.0
20260503220041 16 0.0 0.0 0.00 0.00 0.00 57 1016.0
20260503215025 16 0.0 0.0 0.00 0.00 0.00 57 1015.9
20260503214051 16 0.0 0.0 0.00 0.00 0.00 56 1015.8
20260503213034 16 0.0 0.0 0.00 0.00 0.00 56 1015.7
20260503212106 16 0.0 0.0 0.00 0.00 0.00 55 1015.6
20260503211024 16 0.0 0.0 0.00 0.00 0.00 55 1015.6
20260503210050 16 0.0 0.0 0.00 0.00 0.00 55 1015.6
20260503205115 16 0.0 0.0 0.00 0.00 0.00 54 1015.4
20260503204033 16 0.0 0.0 0.00 0.00 0.00 54 1015.3
20260503203059 16 0.0 0.0 0.00 0.00 0.00 54 1015.3
20260503202019 16 0.0 0.0 0.00 0.00 0.00 53 1015.4
20260503201040 16 0.0 0.0 0.00 0.00 0.00 53 1015.1
20260503200019 16 0.0 0.0 0.00 0.00 0.00 53 1015.0
20260503195039 17 0.0 0.0 0.00 0.00 0.00 53 1014.9
20260503194018 17 0.0 0.0 0.00 0.00 0.00 53 1014.9
20260503193039 17 0.0 0.0 0.00 0.00 0.00 52 1014.8
20260503192108 17 0.0 0.0 0.00 0.00 0.00 53 1014.7
20260503191040 18 0.0 0.0 0.00 0.00 0.00 52 1014.8
20260503190107 18 0.0 0.0 0.00 0.00 0.00 51 1014.7
20260503185024 18 0.0 0.0 0.00 0.00 0.00 51 1014.6
20260503184050 18 0.0 0.0 0.00 0.00 0.00 50 1014.5
20260503183034 19 0.0 0.0 0.00 0.00 0.00 49 1014.3
20260503182107 20 0.0 0.0 0.00 0.00 0.00 48 1014.4
20260503181034 20 0.0 0.0 0.00 0.00 0.00 47 1014.1
20260503180106 21 0.0 0.0 0.00 0.00 0.00 44 1014.1
20260503175034 21 0.0 0.0 0.00 0.00 0.00 43 1014.0
20260503174108 21 0.0 0.0 0.00 0.00 0.00 42 1014.1
20260503173025 22 0.0 0.0 0.00 0.00 0.00 40 1014.1
20260503172042 23 0.0 0.0 0.00 0.00 0.00 38 1014.0
20260503171115 23 0.0 0.0 0.00 0.00 0.00 37 1014.0
20260503131115 26 43 0.0 1.6 0.00 0.00 0.00 28 1015.7
20260503110108 26 44 1.6 3.2 0.00 0.00 0.00 35 1017.2
20260503081024 21 0.0 0.0 0.00 0.00 0.00 42 1019.0